CSR26 EDDW-EDDH

Flight info

Callsign CSR26
Flight time N/A
Altitude 8000
Route WSN1M WSN Y850 MUBZI M105 RIBSO DCT EDDH DCT WSN L23 GIBMA DCT EDDW
Aircraft DA42/L-SDFGRY/C

Departure

Time 2026-05-06 17:10
Airport Bremen Airport (EDDW)

Arrival

Time N/A
Airport Hamburg Helmut Schmidt Airport (EDDH)
Time Latitude Longitude Altitude Speed Heading
2026-05-06 16:55 53.04885 8.78388 13 ft 0 kts 228°
2026-05-06 17:02 53.04884 8.78387 13 ft 1 kts 226°
2026-05-06 17:03 53.04858 8.78402 13 ft 7 kts 118°
2026-05-06 17:03 53.04848 8.78512 13 ft 12 kts 96°
2026-05-06 17:03 53.04846 8.78623 13 ft 7 kts 120°
2026-05-06 17:03 53.04810 8.78662 13 ft 7 kts 174°
2026-05-06 17:04 53.04775 8.78664 13 ft 0 kts 178°
2026-05-06 17:08 53.04741 8.78666 13 ft 9 kts 179°
2026-05-06 17:08 53.04688 8.78686 14 ft 7 kts 110°
2026-05-06 17:09 53.04686 8.78709 14 ft 0 kts 89°
2026-05-06 17:09 53.04686 8.78718 14 ft 11 kts 88°
2026-05-06 17:09 53.04697 8.79232 14 ft 73 kts 89°
2026-05-06 17:10 53.04721 8.80224 175 ft 89 kts 86°
2026-05-06 17:10 53.04721 8.81280 502 ft 93 kts 85°
2026-05-06 17:10 53.04728 8.82330 874 ft 90 kts 83°
2026-05-06 17:10 53.04739 8.83361 1281 ft 88 kts 83°
2026-05-06 17:11 53.04755 8.84374 1696 ft 87 kts 82°
2026-05-06 17:11 53.04775 8.85373 2085 ft 88 kts 83°
2026-05-06 17:11 53.04797 8.86399 2447 ft 90 kts 84°
2026-05-06 17:11 53.04821 8.87441 2765 ft 91 kts 85°
2026-05-06 17:12 53.04846 8.88523 3072 ft 95 kts 85°
2026-05-06 17:12 53.04872 8.89618 3406 ft 95 kts 85°
2026-05-06 17:12 53.04898 8.90721 3724 ft 97 kts 85°
2026-05-06 17:12 53.04925 8.91843 4067 ft 97 kts 85°
2026-05-06 17:13 53.05202 8.92833 4404 ft 97 kts 44°
2026-05-06 17:13 53.05692 8.93598 4732 ft 99 kts 42°
2026-05-06 17:13 53.06204 8.94408 5054 ft 101 kts 43°
2026-05-06 17:13 53.06712 8.95229 5390 ft 102 kts 43°
2026-05-06 17:14 53.07214 8.96053 5719 ft 104 kts 44°
2026-05-06 17:14 53.07734 8.96911 6061 ft 105 kts 44°
2026-05-06 17:14 53.08247 8.97761 6384 ft 106 kts 44°
2026-05-06 17:14 53.08780 8.98647 6698 ft 107 kts 44°
2026-05-06 17:15 53.09313 8.99533 7010 ft 109 kts 44°
2026-05-06 17:15 53.09857 9.00439 7262 ft 116 kts 44°
2026-05-06 17:15 53.10453 9.01433 7523 ft 123 kts 43°
2026-05-06 17:15 53.11073 9.02468 7787 ft 129 kts 43°
2026-05-06 17:16 53.11730 9.03564 7888 ft 144 kts 44°
2026-05-06 17:16 53.12464 9.04793 7891 ft 154 kts 44°
2026-05-06 17:16 53.13241 9.06090 7893 ft 161 kts 43°
2026-05-06 17:16 53.14055 9.07449 7892 ft 165 kts 43°
2026-05-06 17:17 53.14861 9.08797 7891 ft 168 kts 44°
2026-05-06 17:17 53.15689 9.10181 7890 ft 169 kts 44°
2026-05-06 17:17 53.16518 9.11570 7892 ft 170 kts 44°
2026-05-06 17:17 53.17356 9.12972 7891 ft 171 kts 44°
2026-05-06 17:18 53.18196 9.14380 7883 ft 171 kts 43°
2026-05-06 17:18 53.19037 9.15791 7891 ft 171 kts 44°
2026-05-06 17:18 53.19875 9.17198 7893 ft 171 kts 44°
2026-05-06 17:18 53.20712 9.18604 7887 ft 171 kts 43°
2026-05-06 17:19 53.21551 9.20011 7885 ft 171 kts 44°
2026-05-06 17:19 53.22390 9.21421 7892 ft 171 kts 44°
2026-05-06 17:19 53.23227 9.22832 7889 ft 171 kts 44°
2026-05-06 17:19 53.24068 9.24246 7887 ft 172 kts 44°
2026-05-06 17:20 53.24907 9.25660 7885 ft 172 kts 44°
2026-05-06 17:20 53.25747 9.27073 7880 ft 171 kts 44°
2026-05-06 17:20 53.26582 9.28483 7884 ft 171 kts 44°
2026-05-06 17:20 53.27419 9.29895 7881 ft 171 kts 43°
2026-05-06 17:21 53.28278 9.31343 7709 ft 180 kts 44°
2026-05-06 17:21 53.29172 9.32853 7533 ft 185 kts 44°
2026-05-06 17:21 53.29778 9.33874 7415 ft 187 kts 44°
2026-05-06 17:21 53.30698 9.35413 7239 ft 188 kts 44°
2026-05-06 17:22 53.31624 9.36965 7066 ft 188 kts 44°
2026-05-06 17:22 53.32545 9.38498 6895 ft 186 kts 44°
2026-05-06 17:22 53.33447 9.39990 6882 ft 178 kts 44°
2026-05-06 17:22 53.34306 9.41414 6883 ft 172 kts 44°
2026-05-06 17:23 53.35143 9.42834 6881 ft 170 kts 50°
2026-05-06 17:23 53.35546 9.44671 6778 ft 175 kts 86°
2026-05-06 17:23 53.35513 9.46749 6586 ft 181 kts 93°
2026-05-06 17:23 53.35419 9.48859 6390 ft 183 kts 94°
2026-05-06 17:24 53.35315 9.50954 6249 ft 182 kts 94°
2026-05-06 17:24 53.35204 9.53035 6120 ft 177 kts 94°
2026-05-06 17:24 53.35095 9.55091 5988 ft 173 kts 94°
2026-05-06 17:24 53.34990 9.57089 5859 ft 171 kts 94°
2026-05-06 17:25 53.34885 9.59060 5730 ft 170 kts 94°
2026-05-06 17:25 53.34779 9.61024 5601 ft 169 kts 94°
2026-05-06 17:25 53.34670 9.62977 5472 ft 168 kts 94°
2026-05-06 17:25 53.34564 9.64912 5345 ft 167 kts 94°
2026-05-06 17:26 53.34461 9.66845 5223 ft 167 kts 94°
2026-05-06 17:26 53.34358 9.68772 5099 ft 166 kts 94°
2026-05-06 17:26 53.34255 9.70664 4971 ft 165 kts 94°
2026-05-06 17:26 53.34147 9.72596 4844 ft 164 kts 94°
2026-05-06 17:27 53.34042 9.74503 4723 ft 165 kts 94°
2026-05-06 17:27 53.33937 9.76399 4606 ft 167 kts 94°
2026-05-06 17:27 53.33832 9.78356 4474 ft 170 kts 94°
2026-05-06 17:27 53.33716 9.80321 4344 ft 170 kts 94°
2026-05-06 17:28 53.33654 9.82283 4202 ft 168 kts 80°
2026-05-06 17:28 53.34203 9.83954 4120 ft 167 kts 42°
2026-05-06 17:28 53.35274 9.84646 3993 ft 169 kts
2026-05-06 17:28 53.36369 9.84026 3985 ft 170 kts 330°
2026-05-06 17:29 53.37290 9.82790 3977 ft 168 kts 324°
2026-05-06 17:29 53.38164 9.81520 3977 ft 166 kts 324°
2026-05-06 17:29 53.39027 9.80252 3974 ft 164 kts 324°
2026-05-06 17:29 53.39880 9.78994 3976 ft 163 kts 324°
2026-05-06 17:30 53.40727 9.77741 3973 ft 162 kts 324°
2026-05-06 17:30 53.41572 9.76489 3975 ft 162 kts 324°
2026-05-06 17:30 53.42414 9.75239 3977 ft 162 kts 324°
2026-05-06 17:30 53.43256 9.73988 3977 ft 162 kts 324°
2026-05-06 17:31 53.44097 9.72737 3988 ft 162 kts 324°
2026-05-06 17:31 53.44941 9.71484 3985 ft 162 kts 324°
2026-05-06 17:31 53.45785 9.70227 3992 ft 162 kts 324°
2026-05-06 17:31 53.46632 9.68970 3992 ft 163 kts 324°
2026-05-06 17:32 53.47619 9.68230 3978 ft 153 kts
2026-05-06 17:32 53.48565 9.68797 3981 ft 145 kts 44°
2026-05-06 17:32 53.49052 9.70246 3986 ft 143 kts 64°
2026-05-06 17:32 53.49607 9.71640 3930 ft 147 kts 54°
2026-05-06 17:33 53.50251 9.73035 3732 ft 155 kts 52°
2026-05-06 17:33 53.50938 9.74469 3518 ft 159 kts 52°
2026-05-06 17:33 53.51649 9.75888 3304 ft 156 kts 51°
2026-05-06 17:33 53.52338 9.77271 3094 ft 153 kts 51°
2026-05-06 17:34 53.53011 9.78627 2883 ft 150 kts 51°
2026-05-06 17:34 53.53674 9.79961 2679 ft 148 kts 52°
2026-05-06 17:34 53.54326 9.81277 2480 ft 146 kts 51°
2026-05-06 17:34 53.54975 9.82585 2279 ft 145 kts 51°
2026-05-06 17:35 53.55623 9.83884 2080 ft 144 kts 52°
2026-05-06 17:35 53.56261 9.85169 1881 ft 143 kts 51°
2026-05-06 17:35 53.56896 9.86449 1688 ft 143 kts 51°
2026-05-06 17:36 53.58149 9.88970 1300 ft 138 kts 50°
2026-05-06 17:36 53.58754 9.90185 1096 ft 133 kts 51°
2026-05-06 17:36 53.59334 9.91354 909 ft 128 kts 50°
2026-05-06 17:36 53.59900 9.92494 732 ft 121 kts 50°
2026-05-06 17:37 53.60403 9.93508 569 ft 104 kts 50°
2026-05-06 17:37 53.60828 9.94367 453 ft 88 kts 50°
2026-05-06 17:37 53.61196 9.95099 333 ft 78 kts 49°
2026-05-06 17:37 53.61548 9.95814 216 ft 80 kts 52°
2026-05-06 17:38 53.61901 9.96524 97 ft 77 kts 50°
2026-05-06 17:38 53.62230 9.97187 37 ft 61 kts 51°
2026-05-06 17:38 53.62456 9.97644 35 ft 62 kts 50°
2026-05-06 17:38 53.62813 9.98364 81 ft 96 kts 50°
2026-05-06 17:39 53.63245 9.99233 477 ft 92 kts 51°
2026-05-06 17:39 53.63622 10.00004 912 ft 83 kts 51°
2026-05-06 17:39 53.63976 10.00743 1327 ft 79 kts 52°
2026-05-06 17:39 53.64315 10.01463 1710 ft 77 kts 52°
2026-05-06 17:40 53.64643 10.02153 2075 ft 76 kts 52°
2026-05-06 17:40 53.64985 10.02846 2445 ft 77 kts 52°
2026-05-06 17:40 53.65337 10.03535 2817 ft 78 kts 52°
2026-05-06 17:40 53.65693 10.04229 3176 ft 78 kts 52°
2026-05-06 17:41 53.66051 10.04929 3520 ft 79 kts 52°
2026-05-06 17:41 53.66413 10.05640 3873 ft 80 kts 52°
2026-05-06 17:41 53.66773 10.06361 4224 ft 81 kts 52°
2026-05-06 17:41 53.67140 10.07101 4573 ft 83 kts 52°
2026-05-06 17:42 53.67511 10.07859 4924 ft 84 kts 52°
2026-05-06 17:42 53.67683 10.08916 4999 ft 110 kts 94°
2026-05-06 17:42 53.67232 10.10108 4999 ft 136 kts 140°
2026-05-06 17:42 53.66266 10.10566 5001 ft 153 kts 171°
2026-05-06 17:43 53.65173 10.10656 4994 ft 160 kts 173°
2026-05-06 17:43 53.64048 10.10716 4994 ft 163 kts 174°